,,,PA_Meas_PMT16A,,PR_Meas_QMR101_102,,RH_Meas_QMH101,,SR_Meas_QMS101,,TA_Meas_QMH101,,GenWind,,GenWind,
date,time,status,PA,status,PR,status,RH,status,SR,status,TA,status,DirAvg,status,SpdAvg,
2010-08-22, 00:00:05,VALID,1003.52,VALID,0,VALID,85.596,VALID,0,VALID,26.7219,VALID,12,VALID,0.809766,
2010-08-22, 00:01:05,VALID,1003.54,VALID,0,VALID,85.596,VALID,0,VALID,26.7024,VALID,15,VALID,0.852344,
2010-08-22, 00:02:05,VALID,1003.53,VALID,0,VALID,85.6037,VALID,0,VALID,26.7024,VALID,12,VALID,0.733984,
2010-08-22, 00:03:05,VALID,1003.52,VALID,0,VALID,85.6266,VALID,0,VALID,26.7024,VALID,27,VALID,1.46094,
2010-08-22, 00:04:05,VALID,1003.49,VALID,0,VALID,85.5198,VALID,0,VALID,26.7024,VALID,21,VALID,0.836719,
2010-08-22, 00:05:05,VALID,1003.48,VALID,0,VALID,85.4969,VALID,0,VALID,26.683,VALID,11,VALID,1.47344,
2010-08-22, 00:06:05,VALID,1003.46,VALID,0,VALID,85.5579,VALID,0,VALID,26.6614,VALID,26,VALID,1.45234,
2010-08-22, 00:07:05,VALID,1003.38,VALID,0,VALID,85.6266,VALID,0,VALID,26.6635,VALID,14,VALID,1.15391,
2010-08-22, 00:08:05,VALID,1003.34,VALID,0,VALID,85.6113,VALID,0,VALID,26.6225,VALID,34,VALID,1.48359,
2010-08-22, 00:09:05,VALID,1003.34,VALID,0,VALID,85.6647,VALID,0,VALID,26.603,VALID,15,VALID,0.740234,
2010-08-22, 00:10:05,VALID,1003.32,VALID,0,VALID,85.7868,VALID,0,VALID,26.5661,VALID,360,VALID,0.611328,
2010-08-22, 00:11:05,VALID,1003.28,VALID,0,VALID,85.7562,VALID,0,VALID,26.5466,VALID,58,VALID,0.7875,
2010-08-22, 00:12:05,VALID,1003.28,VALID,0,VALID,85.8936,VALID,0,VALID,26.5076,VALID,340,VALID,0.257422,
2010-08-22, 00:13:05,VALID,1003.27,VALID,0,VALID,86.0538,VALID,0,VALID,26.4667,VALID,14,VALID,0.992578,
2010-08-22, 00:14:05,VALID,1003.27,VALID,0,VALID,85.3977,VALID,0,VALID,26.4667,VALID,81,VALID,1.23008,
2010-08-22, 00:15:05,VALID,1003.31,VALID,0,VALID,85.001,VALID,0,VALID,26.5076,VALID,2,VALID,1.00898,
2010-08-22, 00:16:05,VALID,1003.29,VALID,0,VALID,84.795,VALID,0,VALID,26.4881,VALID,18,VALID,1.38086,
2010-08-22, 00:17:05,VALID,1003.27,VALID,0,VALID,84.8637,VALID,0,VALID,26.5076,VALID,24,VALID,0.431641,
2010-08-22, 00:18:05,VALID,1003.25,VALID,0,VALID,84.8637,VALID,0,VALID,26.4881,VALID,7,VALID,1.43164,
2010-08-22, 00:19:05,VALID,1003.24,VALID,0,VALID,85.0239,VALID,0,VALID,26.4881,VALID,9,VALID,1.13164,
2010-08-22, 00:20:05,VALID,1003.23,VALID,0,VALID,84.9934,VALID,0,VALID,26.4667,VALID,23,VALID,1.31523,
2010-08-22, 00:21:05,VALID,1003.21,VALID,0,VALID,85.4511,VALID,0,VALID,26.5271,VALID,357,VALID,2.10273,
2010-08-22, 00:22:05,VALID,1003.23,VALID,0,VALID,85.329,VALID,0,VALID,26.5661,VALID,16,VALID,1.45391,
2010-08-22, 00:23:05,VALID,1003.19,VALID,0,VALID,85.596,VALID,0,VALID,26.5835,VALID,358,VALID,1.08008,
2010-08-22, 00:24:05,VALID,1003.19,VALID,0,VALID,85.7486,VALID,0,VALID,26.5835,VALID,17,VALID,1.4543,
2010-08-22, 00:25:05,VALID,1003.18,VALID,0,VALID,85.8402,VALID,0,VALID,26.5855,VALID,3,VALID,1.25469,
2010-08-22, 00:26:05,VALID,1003.13,VALID,0,VALID,86.0156,VALID,0,VALID,26.605,VALID,4,VALID,1.44453,
2010-08-22, 00:27:05,VALID,1003.14,VALID,0,VALID,86.0843,VALID,0,VALID,26.5835,VALID,16,VALID,0.651953,
2010-08-22, 00:28:05,VALID,1003.15,VALID,0,VALID,86.1453,VALID,0,VALID,26.5446,VALID,5,VALID,1.19687,
2010-08-22, 00:29:05,VALID,1003.13,VALID,0,VALID,86.0004,VALID,0,VALID,26.5835,VALID,345,VALID,1.19766,
2010-08-22, 00:30:05,VALID,1003.15,VALID,0,VALID,85.741,VALID,0,VALID,26.644,VALID,58,VALID,1.84492,
2010-08-22, 00:31:05,VALID,1003.16,VALID,0,VALID,85.6189,VALID,0,VALID,26.683,VALID,351,VALID,0.751562,
2010-08-22, 00:32:05,VALID,1003.19,VALID,0,VALID,85.5884,VALID,0,VALID,26.6614,VALID,3,VALID,1.01523,
2010-08-22, 00:33:05,VALID,1003.17,VALID,0,VALID,85.3977,VALID,0,VALID,26.7004,VALID,90,VALID,1.11016,
2010-08-22, 00:34:05,VALID,1003.17,VALID,0,VALID,85.123,VALID,0,VALID,26.7589,VALID,33,VALID,1.2043,
2010-08-22, 00:35:05,VALID,1003.15,VALID,0,VALID,85.1154,VALID,0,VALID,26.7394,VALID,347,VALID,1.14609,
2010-08-22, 00:36:05,VALID,1003.14,VALID,0,VALID,85.1002,VALID,0,VALID,26.7589,VALID,10,VALID,1.6418,
2010-08-22, 00:37:05,VALID,1003.17,VALID,0,VALID,85.0468,VALID,0,VALID,26.7394,VALID,71,VALID,0.231641,
2010-08-22, 00:38:05,VALID,1003.16,VALID,0,VALID,85.0849,VALID,0,VALID,26.7394,VALID,324,VALID,0.636328,
2010-08-22, 00:39:05,VALID,1003.21,VALID,0,VALID,85.0544,VALID,0,VALID,26.7609,VALID,19,VALID,0.399609,
2010-08-22, 00:40:05,VALID,1003.21,VALID,0,VALID,85.0315,VALID,0,VALID,26.7609,VALID,16,VALID,0.201953,
2010-08-22, 00:41:05,VALID,1003.25,VALID,0,VALID,85.1307,VALID,0,VALID,26.7199,VALID,29,VALID,0.582422,
2010-08-22, 00:42:05,VALID,1003.25,VALID,0,VALID,85.2451,VALID,0,VALID,26.7024,VALID,83,VALID,0.408984,
2010-08-22, 00:43:05,VALID,1003.31,VALID,0,VALID,85.4206,VALID,0,VALID,26.6635,VALID,99,VALID,0.637891,
2010-08-22, 00:44:05,VALID,1003.25,VALID,0,VALID,85.6418,VALID,0,VALID,26.605,VALID,115,VALID,0.316406,
2010-08-22, 00:45:05,VALID,1003.27,VALID,0,VALID,86.1148,VALID,0,VALID,26.5271,VALID,123,VALID,0.362891,
2010-08-22, 00:46:05,VALID,1003.28,VALID,0,VALID,86.4505,VALID,0,VALID,26.4062,VALID,117,VALID,0.377344,
2010-08-22, 00:47:05,VALID,1003.27,VALID,0,VALID,86.6488,VALID,0,VALID,26.3907,VALID,117,VALID,0,
2010-08-22, 00:48:05,VALID,1003.29,VALID,0,VALID,86.7556,VALID,0,VALID,26.3498,VALID,117,VALID,0,
2010-08-22, 00:49:05,VALID,1003.3,VALID,0,VALID,86.9692,VALID,0,VALID,26.3323,VALID,117,VALID,0.123047,
2010-08-22, 00:50:05,VALID,1003.3,VALID,0,VALID,87.1981,VALID,0,VALID,26.2933,VALID,101,VALID,0.500781,
2010-08-22, 00:51:05,VALID,1003.3,VALID,0,VALID,87.4346,VALID,0,VALID,26.2524,VALID,35,VALID,0.448047,
2010-08-22, 00:52:05,VALID,1003.29,VALID,0,VALID,87.5414,VALID,0,VALID,26.2134,VALID,35,VALID,0.216406,
2010-08-22, 00:53:05,VALID,1003.27,VALID,0,VALID,87.6863,VALID,0,VALID,26.194,VALID,38,VALID,0.473828,
2010-08-22, 00:54:05,VALID,1003.28,VALID,0,VALID,87.9152,VALID,0,VALID,26.1745,VALID,17,VALID,0.979688,
2010-08-22, 00:55:05,VALID,1003.26,VALID,0,VALID,88.0449,VALID,0,VALID,26.155,VALID,70,VALID,0.849609,
2010-08-22, 00:56:05,VALID,1003.28,VALID,0,VALID,88.1288,VALID,0,VALID,26.1765,VALID,16,VALID,1.36953,
2010-08-22, 00:57:05,VALID,1003.24,VALID,0,VALID,88.1822,VALID,0,VALID,26.155,VALID,30,VALID,0.931641,
2010-08-22, 00:58:05,VALID,1003.21,VALID,0,VALID,88.2204,VALID,0,VALID,26.1375,VALID,360,VALID,1.28906,
2010-08-22, 00:59:05,VALID,1003.21,VALID,0,VALID,88.4416,VALID,0,VALID,26.0771,VALID,20,VALID,0.841406,
2010-08-22, 01:00:05,VALID,1003.16,VALID,0,VALID,88.6705,VALID,0,VALID,26.0576,VALID,32,VALID,1.21719,
2010-08-22, 01:01:05,VALID,1003.15,VALID,0,VALID,88.7849,VALID,0,VALID,26.0596,VALID,10,VALID,0.814844,
2010-08-22, 01:02:05,VALID,1003.13,VALID,0,VALID,88.8765,VALID,0,VALID,26.0381,VALID,56,VALID,0.51875,
2010-08-22, 01:03:05,VALID,1003.11,VALID,0,VALID,88.9604,VALID,0,VALID,26.0401,VALID,10,VALID,0.903125,
2010-08-22, 01:04:04,VALID,1003.07,VALID,0,VALID,88.8536,VALID,0,VALID,26.0576,VALID,26,VALID,1.52773,
2010-08-22, 01:05:04,VALID,1003.04,VALID,0,VALID,88.701,VALID,0,VALID,26.118,VALID,9,VALID,0.608594,
2010-08-22, 01:06:04,VALID,1003.05,VALID,0,VALID,88.434,VALID,0,VALID,26.116,VALID,30,VALID,1.69805,
2010-08-22, 01:07:04,VALID,1003.02,VALID,0,VALID,87.9686,VALID,0,VALID,26.1765,VALID,358,VALID,1.15078,
2010-08-22, 01:08:04,VALID,1003.01,VALID,0,VALID,87.5109,VALID,0,VALID,26.2154,VALID,28,VALID,1.37188,
2010-08-22, 01:09:04,VALID,1003.01,VALID,0,VALID,87.2362,VALID,0,VALID,26.2739,VALID,3,VALID,0.691016,
2010-08-22, 01:10:04,VALID,1003,VALID,0,VALID,87.0379,VALID,0,VALID,26.2719,VALID,30,VALID,0.935938,
2010-08-22, 01:11:04,VALID,1002.96,VALID,0,VALID,86.9769,VALID,0,VALID,26.2933,VALID,335,VALID,0.876562,
2010-08-22, 01:12:04,VALID,1002.98,VALID,0,VALID,86.8243,VALID,0,VALID,26.2913,VALID,18,VALID,1.03828,
2010-08-22, 01:13:04,VALID,1002.95,VALID,0,VALID,86.6412,VALID,0,VALID,26.3323,VALID,9,VALID,1.00703,
2010-08-22, 01:14:04,VALID,1002.94,VALID,0,VALID,86.4428,VALID,0,VALID,26.3498,VALID,44,VALID,0.348828,
2010-08-22, 01:15:04,VALID,1002.92,VALID,0,VALID,86.214,VALID,0,VALID,26.3907,VALID,2,VALID,0.530859,
2010-08-22, 01:16:04,VALID,1002.92,VALID,0,VALID,86.1453,VALID,0,VALID,26.3887,VALID,360,VALID,0.232422,
2010-08-22, 01:17:04,VALID,1002.92,VALID,0,VALID,86.1301,VALID,0,VALID,26.4102,VALID,89,VALID,0.912109,
2010-08-22, 01:18:04,VALID,1002.94,VALID,0,VALID,86.1758,VALID,0,VALID,26.3693,VALID,40,VALID,0.0015625,
2010-08-22, 01:19:04,VALID,1002.94,VALID,0,VALID,86.2369,VALID,0,VALID,26.3713,VALID,5,VALID,0.676562,
2010-08-22, 01:20:04,VALID,1002.95,VALID,0,VALID,86.336,VALID,0,VALID,26.3518,VALID,7,VALID,0.266797,
2010-08-22, 01:21:04,VALID,1002.96,VALID,0,VALID,86.42,VALID,0,VALID,26.3108,VALID,25,VALID,1.02031,
2010-08-22, 01:22:04,VALID,1002.96,VALID,0,VALID,86.42,VALID,0,VALID,26.3518,VALID,56,VALID,0.534766,
2010-08-22, 01:23:04,VALID,1003,VALID,0,VALID,86.42,VALID,0,VALID,26.3538,VALID,47,VALID,0.423438,
2010-08-22, 01:24:04,VALID,1002.98,VALID,0,VALID,86.3589,VALID,0,VALID,26.3518,VALID,45,VALID,0.515234,
2010-08-22, 01:25:04,VALID,1002.98,VALID,0,VALID,86.2674,VALID,0,VALID,26.3713,VALID,22,VALID,0.478125,
2010-08-22, 01:26:04,VALID,1002.97,VALID,0,VALID,86.2521,VALID,0,VALID,26.3323,VALID,32,VALID,0.447656,
2010-08-22, 01:27:04,VALID,1002.94,VALID,0,VALID,86.3437,VALID,0,VALID,26.3108,VALID,33,VALID,0.211719,
2010-08-22, 01:28:04,VALID,1002.94,VALID,0,VALID,86.5039,VALID,0,VALID,26.3128,VALID,24,VALID,0.646484,
2010-08-22, 01:29:04,VALID,1002.93,VALID,0,VALID,86.5649,VALID,0,VALID,26.2913,VALID,54,VALID,1.16055,
2010-08-22, 01:30:04,VALID,1002.93,VALID,0,VALID,86.4657,VALID,0,VALID,26.3518,VALID,71,VALID,0.325391,
2010-08-22, 01:31:04,VALID,1002.9,VALID,0,VALID,86.3818,VALID,0,VALID,26.3518,VALID,71,VALID,0.0453125,
2010-08-22, 01:32:04,VALID,1002.9,VALID,0,VALID,86.4123,VALID,0,VALID,26.3323,VALID,71,VALID,0.238672,
2010-08-22, 01:33:04,VALID,1002.89,VALID,0,VALID,86.4581,VALID,0,VALID,26.3128,VALID,29,VALID,0.362891,
2010-08-22, 01:34:04,VALID,1002.87,VALID,0,VALID,86.4505,VALID,0,VALID,26.2933,VALID,29,VALID,0,
2010-08-22, 01:35:04,VALID,1002.88,VALID,0,VALID,86.5496,VALID,0,VALID,26.2933,VALID,29,VALID,0.186719,
2010-08-22, 01:36:04,VALID,1002.83,VALID,0,VALID,86.5649,VALID,0,VALID,26.2739,VALID,29,VALID,0,
2010-08-22, 01:37:04,VALID,1002.85,VALID,0,VALID,86.7404,VALID,0,VALID,26.2329,VALID,29,VALID,0,
2010-08-22, 01:38:04,VALID,1002.83,VALID,0,VALID,86.9006,VALID,0,VALID,26.2134,VALID,29,VALID,0.316797,
2010-08-22, 01:39:04,VALID,1002.82,VALID,0,VALID,87.1294,VALID,0,VALID,26.194,VALID,35,VALID,0.552344,
2010-08-22, 01:40:04,VALID,1002.82,VALID,0,VALID,87.1905,VALID,0,VALID,26.2369,VALID,15,VALID,0.187109,
2010-08-22, 01:41:04,VALID,1002.8,VALID,0,VALID,87.1294,VALID,0,VALID,26.2174,VALID,358,VALID,0.789844,
2010-08-22, 01:42:04,VALID,1002.75,VALID,0,VALID,87.0532,VALID,0,VALID,26.2369,VALID,16,VALID,0.515625,
2010-08-22, 01:43:04,VALID,1002.74,VALID,0,VALID,86.9387,VALID,0,VALID,26.2349,VALID,337,VALID,0.532812,
2010-08-22, 01:44:04,VALID,1002.7,VALID,0,VALID,86.8929,VALID,0,VALID,26.2759,VALID,334,VALID,0.277734,
2010-08-22, 01:45:04,VALID,1002.69,VALID,0,VALID,86.7633,VALID,0,VALID,26.2759,VALID,7,VALID,0.340625,
2010-08-22, 01:46:04,VALID,1002.67,VALID,0,VALID,86.7938,VALID,0,VALID,26.2759,VALID,7,VALID,0.00351562,
2010-08-22, 01:47:04,VALID,1002.64,VALID,0,VALID,86.8167,VALID,0,VALID,26.2349,VALID,7,VALID,0.440234,
2010-08-22, 01:48:04,VALID,1002.6,VALID,0,VALID,87.0913,VALID,0,VALID,26.2154,VALID,341,VALID,0.778516,
2010-08-22, 01:49:04,VALID,1002.57,VALID,0,VALID,86.8777,VALID,0,VALID,26.2739,VALID,27,VALID,0.480078,
2010-08-22, 01:50:04,VALID,1002.54,VALID,0,VALID,86.3818,VALID,0,VALID,26.2544,VALID,81,VALID,0.264062,
2010-08-22, 01:51:04,VALID,1002.48,VALID,0,VALID,86.5878,VALID,0,VALID,26.1959,VALID,81,VALID,0.04375,
2010-08-22, 01:52:04,VALID,1002.48,VALID,0,VALID,86.8319,VALID,0,VALID,26.0985,VALID,69,VALID,0.540625,
2010-08-22, 01:53:04,VALID,1002.44,VALID,0,VALID,87.5872,VALID,0,VALID,26.0421,VALID,360,VALID,0.646484,
2010-08-22, 01:54:04,VALID,1002.44,VALID,0,VALID,87.7932,VALID,0,VALID,25.9797,VALID,360,VALID,0.528516,
2010-08-22, 01:55:04,VALID,1002.42,VALID,0,VALID,87.9534,VALID,0,VALID,25.8823,VALID,360,VALID,0.280078,
2010-08-22, 01:56:04,VALID,1002.41,VALID,0,VALID,88.5103,VALID,0,VALID,25.8259,VALID,360,VALID,0.38125,
2010-08-22, 01:57:04,VALID,1002.43,VALID,0,VALID,89.8911,VALID,0,VALID,25.746,VALID,360,VALID,0.428906,
2010-08-22, 01:58:04,VALID,1002.46,VALID,0,VALID,93.3775,VALID,0,VALID,25.785,VALID,18,VALID,0.564062,
2010-08-22, 01:59:04,VALID,1002.48,VALID,0,VALID,91.6686,VALID,0,VALID,25.9038,VALID,80,VALID,0.450391,
2010-08-22, 02:00:04,VALID,1002.49,VALID,0,VALID,90.0894,VALID,0,VALID,25.9018,VALID,68,VALID,0.161719,
2010-08-22, 02:01:04,VALID,1002.47,VALID,0,VALID,89.7919,VALID,0,VALID,25.9232,VALID,68,VALID,0.102344,
2010-08-22, 02:02:04,VALID,1002.48,VALID,0,VALID,89.5783,VALID,0,VALID,25.9018,VALID,68,VALID,0,
2010-08-22, 02:03:04,VALID,1002.49,VALID,0,VALID,89.6012,VALID,0,VALID,25.9018,VALID,68,VALID,0.164063,
2010-08-22, 02:04:04,VALID,1002.46,VALID,0,VALID,89.5097,VALID,0,VALID,25.8804,VALID,68,VALID,0.174609,
2010-08-22, 02:05:04,VALID,1002.42,VALID,0,VALID,89.3571,VALID,0,VALID,25.9018,VALID,13,VALID,0.451172,
2010-08-22, 02:06:04,VALID,1002.42,VALID,0,VALID,89.1206,VALID,0,VALID,25.9018,VALID,12,VALID,0,
2010-08-22, 02:07:04,VALID,1002.46,VALID,0,VALID,88.9375,VALID,0,VALID,25.9018,VALID,12,VALID,0.267969,
2010-08-22, 02:08:04,VALID,1002.43,VALID,0,VALID,89.2274,VALID,0,VALID,25.9408,VALID,21,VALID,0.585547,
2010-08-22, 02:09:04,VALID,1002.45,VALID,0,VALID,88.8765,VALID,0,VALID,25.9797,VALID,21,VALID,0.258203,
2010-08-22, 02:10:04,VALID,1002.46,VALID,0,VALID,88.5866,VALID,0,VALID,26.0206,VALID,21,VALID,0.146094,
2010-08-22, 02:11:04,VALID,1002.48,VALID,0,VALID,88.2814,VALID,0,VALID,25.9622,VALID,22,VALID,0.248047,
2010-08-22, 02:12:04,VALID,1002.46,VALID,0,VALID,88.3958,VALID,0,VALID,25.8843,VALID,29,VALID,0.326953,
2010-08-22, 02:13:04,VALID,1002.46,VALID,0,VALID,88.9299,VALID,0,VALID,25.785,VALID,46,VALID,0.215234,
2010-08-22, 02:14:04,VALID,1002.41,VALID,0,VALID,89.9445,VALID,0,VALID,25.7674,VALID,2,VALID,0.616406,
2010-08-22, 02:15:04,VALID,1002.4,VALID,0,VALID,91.8365,VALID,0,VALID,25.785,VALID,355,VALID,0.529297,
2010-08-22, 02:16:04,VALID,1002.39,VALID,0,VALID,91.2948,VALID,0,VALID,25.8239,VALID,355,VALID,0.378906,
2010-08-22, 02:17:04,VALID,1002.36,VALID,0,VALID,90.2954,VALID,0,VALID,25.8823,VALID,9,VALID,0.412109,
2010-08-22, 02:18:04,VALID,1002.35,VALID,0,VALID,89.5173,VALID,0,VALID,25.9408,VALID,11,VALID,0.314453,
2010-08-22, 02:19:04,VALID,1002.38,VALID,0,VALID,88.8917,VALID,0,VALID,25.9018,VALID,11,VALID,0.0675781,
2010-08-22, 02:20:04,VALID,1002.34,VALID,0,VALID,88.8917,VALID,0,VALID,25.8823,VALID,11,VALID,0.100391,
2010-08-22, 02:21:04,VALID,1002.31,VALID,0,VALID,89.029,VALID,0,VALID,25.8239,VALID,11,VALID,0.00078125,
2010-08-22, 02:22:04,VALID,1002.29,VALID,0,VALID,89.3952,VALID,0,VALID,25.8064,VALID,11,VALID,0.280469,
2010-08-22, 02:23:04,VALID,1002.26,VALID,0,VALID,89.4486,VALID,0,VALID,25.746,VALID,11,VALID,0.124609,
2010-08-22, 02:24:04,VALID,1002.29,VALID,0,VALID,89.8453,VALID,0,VALID,25.6681,VALID,11,VALID,0.380078,
2010-08-22, 02:25:04,VALID,1002.25,VALID,0,VALID,90.86,VALID,0,VALID,25.5902,VALID,11,VALID,0.147266,
2010-08-22, 02:26:04,VALID,1002.22,VALID,0,VALID,93.6826,VALID,0,VALID,25.5513,VALID,11,VALID,0.125781,
2010-08-22, 02:27:04,VALID,1002.24,VALID,0,VALID,101.22,VALID,0,VALID,25.5318,VALID,11,VALID,0.179297,
2010-08-22, 02:28:04,VALID,1002.21,VALID,0,VALID,104,VALID,0,VALID,25.4928,VALID,11,VALID,0.192578,
2010-08-22, 02:29:04,VALID,1002.22,VALID,0,INVALID,110.558,VALID,0,VALID,25.4539,VALID,11,VALID,0.00585938,
2010-08-22, 02:30:04,VALID,1002.18,VALID,0,INVALID,113.052,VALID,0,VALID,25.3955,VALID,11,VALID,0.362891,
2010-08-22, 02:31:04,VALID,1002.18,VALID,0,INVALID,114.654,VALID,0,VALID,25.3565,VALID,11,VALID,0.188672,
2010-08-22, 02:32:04,VALID,1002.16,VALID,0,INVALID,116.02,VALID,0,VALID,25.3,VALID,11,VALID,0.164453,
2010-08-22, 02:33:04,VALID,1002.18,VALID,0,INVALID,116.707,VALID,0,VALID,25.2416,VALID,11,VALID,0.3375,
2010-08-22, 02:34:04,VALID,1002.18,VALID,0,INVALID,117.363,VALID,0,VALID,25.2007,VALID,11,VALID,0.312891,
2010-08-22, 02:35:04,VALID,1002.19,VALID,0,INVALID,117.721,VALID,0,VALID,25.1618,VALID,11,VALID,0.262891,
2010-08-22, 02:36:04,VALID,1002.2,VALID,0,INVALID,118.019,VALID,0,VALID,25.1423,VALID,11,VALID,0.319141,
2010-08-22, 02:37:04,VALID,1002.19,VALID,0,INVALID,118.271,VALID,0,VALID,25.1229,VALID,11,VALID,0.304688,
2010-08-22, 02:38:04,VALID,1002.17,VALID,0,INVALID,118.415,VALID,0,VALID,25.0839,VALID,11,VALID,0.000390625,
2010-08-22, 02:39:04,VALID,1002.2,VALID,0,INVALID,118.53,VALID,0,VALID,25.045,VALID,11,VALID,0.191016,
2010-08-22, 02:40:04,VALID,1002.19,VALID,0,INVALID,118.637,VALID,0,VALID,25.0469,VALID,11,VALID,0.362109,
2010-08-22, 02:41:04,VALID,1002.21,VALID,0,INVALID,118.736,VALID,0,VALID,25.0274,VALID,11,VALID,0.165625,
2010-08-22, 02:42:04,VALID,1002.19,VALID,0,INVALID,118.774,VALID,0,VALID,25.0079,VALID,11,VALID,0.169922,
2010-08-22, 02:43:04,VALID,1002.18,VALID,0,INVALID,118.827,VALID,0,VALID,25.0274,VALID,11,VALID,0.163672,
2010-08-22, 02:44:04,VALID,1002.16,VALID,0,INVALID,118.927,VALID,0,VALID,25.0079,VALID,11,VALID,0.228516,
2010-08-22, 02:45:04,VALID,1002.1,VALID,0,INVALID,118.934,VALID,0,VALID,24.9885,VALID,11,VALID,0.0980469,
2010-08-22, 02:46:04,VALID,1002.09,VALID,0,INVALID,118.95,VALID,0,VALID,24.969,VALID,11,VALID,0.196484,
2010-08-22, 02:47:04,VALID,1002.08,VALID,0,INVALID,119.003,VALID,0,VALID,24.969,VALID,11,VALID,0.296094,
2010-08-22, 02:48:04,VALID,1002.09,VALID,0,INVALID,119.041,VALID,0,VALID,24.93,VALID,11,VALID,0.471484,
2010-08-22, 02:49:04,VALID,1002.1,VALID,0,INVALID,119.041,VALID,0,VALID,24.8697,VALID,11,VALID,0.358594,
2010-08-22, 02:50:04,VALID,1002.11,VALID,0,INVALID,119.018,VALID,0,VALID,24.8716,VALID,11,VALID,0.311328,
2010-08-22, 02:51:04,VALID,1002.09,VALID,0,INVALID,119.041,VALID,0,VALID,24.8522,VALID,11,VALID,0.168359,
2010-08-22, 02:52:04,VALID,1002.06,VALID,0,INVALID,119.018,VALID,0,VALID,24.8327,VALID,11,VALID,0.521875,
2010-08-22, 02:53:04,VALID,1002.02,VALID,0,INVALID,119.011,VALID,0,VALID,24.8327,VALID,10,VALID,0.208594,
2010-08-22, 02:54:04,VALID,1002.03,VALID,0,INVALID,119.018,VALID,0,VALID,24.8132,VALID,10,VALID,0.426953,
2010-08-22, 02:55:04,VALID,1002.01,VALID,0,INVALID,119.033,VALID,0,VALID,24.7724,VALID,10,VALID,0.369141,
2010-08-22, 02:56:04,VALID,1002,VALID,0,INVALID,118.988,VALID,0,VALID,24.7743,VALID,13,VALID,0.700391,
2010-08-22, 02:57:04,VALID,1002.01,VALID,0,INVALID,118.927,VALID,0,VALID,24.7743,VALID,15,VALID,0.516406,
2010-08-22, 02:58:04,VALID,1001.98,VALID,0,INVALID,118.934,VALID,0,VALID,24.7548,VALID,15,VALID,0.472266,
2010-08-22, 02:59:04,VALID,1002.01,VALID,0,INVALID,118.972,VALID,0,VALID,24.7353,VALID,15,VALID,0.661719,
2010-08-22, 03:00:04,VALID,1002.02,VALID,0,INVALID,118.972,VALID,0,VALID,24.675,VALID,15,VALID,0.611328,
2010-08-22, 03:01:04,VALID,1002.02,VALID,0,INVALID,118.812,VALID,0,VALID,24.6556,VALID,15,VALID,0.364453,
2010-08-22, 03:02:04,VALID,1002,VALID,0,INVALID,118.797,VALID,0,VALID,24.6556,VALID,15,VALID,0.339453,
2010-08-22, 03:03:04,VALID,1001.98,VALID,0,INVALID,118.713,VALID,0,VALID,24.6769,VALID,15,VALID,0.307813,
2010-08-22, 03:04:04,VALID,1002.01,VALID,0,INVALID,118.576,VALID,0,VALID,24.675,VALID,15,VALID,0.230469,
2010-08-22, 03:05:04,VALID,1002.02,VALID,0,INVALID,118.469,VALID,0,VALID,24.714,VALID,15,VALID,0.267578,
2010-08-22, 03:06:04,VALID,1002.05,VALID,0,INVALID,118.469,VALID,0,VALID,24.7743,VALID,15,VALID,0.255469,
2010-08-22, 03:07:04,VALID,1002.01,VALID,0,INVALID,118.263,VALID,0,VALID,24.8132,VALID,61,VALID,0.453906,
2010-08-22, 03:08:04,VALID,1001.99,VALID,0,INVALID,117.996,VALID,0,VALID,24.969,VALID,87,VALID,0.649219,
2010-08-22, 03:09:04,VALID,1001.96,VALID,0,INVALID,118.347,VALID,0,VALID,25.0663,VALID,74,VALID,0.45,
2010-08-22, 03:10:04,VALID,1001.94,VALID,0,INVALID,118.843,VALID,0,VALID,25.0858,VALID,74,VALID,0.255859,
2010-08-22, 03:11:04,VALID,1001.96,VALID,0,INVALID,119.087,VALID,0,VALID,25.1053,VALID,75,VALID,0.150391,
2010-08-22, 03:12:04,VALID,1001.96,VALID,0,INVALID,119.209,VALID,0,VALID,25.0858,VALID,74,VALID,0.0628906,
2010-08-22, 03:13:04,VALID,1001.98,VALID,0,INVALID,119.262,VALID,0,VALID,25.0858,VALID,74,VALID,0.233984,
2010-08-22, 03:14:04,VALID,1001.98,VALID,0,INVALID,119.262,VALID,0,VALID,25.0663,VALID,74,VALID,0.326562,
2010-08-22, 03:15:04,VALID,1001.99,VALID,0,INVALID,119.278,VALID,0,VALID,25.045,VALID,57,VALID,0.568359,
2010-08-22, 03:16:04,VALID,1001.94,VALID,0,INVALID,119.262,VALID,0,VALID,25.0079,VALID,57,VALID,0.401563,
2010-08-22, 03:17:04,VALID,1001.94,VALID,0,INVALID,119.262,VALID,0,VALID,24.969,VALID,46,VALID,0.621875,
2010-08-22, 03:18:04,VALID,1001.96,VALID,0,INVALID,119.163,VALID,0,VALID,24.9904,VALID,12,VALID,0.967578,
2010-08-22, 03:19:04,VALID,1002,VALID,0,INVALID,119.27,VALID,0,VALID,24.9885,VALID,17,VALID,0.707031,
2010-08-22, 03:20:04,VALID,1002.02,VALID,0,INVALID,119.171,VALID,0,VALID,25.0274,VALID,34,VALID,1.41953,
2010-08-22, 03:21:04,VALID,1002.03,VALID,0,INVALID,119.278,VALID,0,VALID,25.2027,VALID,28,VALID,1.00352,
2010-08-22, 03:22:04,VALID,1001.99,VALID,0,INVALID,119.392,VALID,0,VALID,25.2416,VALID,24,VALID,0.647266,
2010-08-22, 03:23:04,VALID,1001.97,VALID,0,INVALID,119.285,VALID,0,VALID,25.2825,VALID,24,VALID,0.577344,
2010-08-22, 03:24:04,VALID,1001.91,VALID,0,INVALID,119.201,VALID,0,VALID,25.2825,VALID,50,VALID,0.385156,
2010-08-22, 03:25:04,VALID,1001.91,VALID,0,INVALID,119.224,VALID,0,VALID,25.339,VALID,30,VALID,0.5875,
2010-08-22, 03:26:04,VALID,1001.88,VALID,0,INVALID,119.217,VALID,0,VALID,25.4558,VALID,22,VALID,1.11563,
2010-08-22, 03:27:04,VALID,1001.82,VALID,0,INVALID,119.049,VALID,0,VALID,25.5727,VALID,10,VALID,0.853906,
2010-08-22, 03:28:04,VALID,1001.87,VALID,0,INVALID,118.606,VALID,0,VALID,25.6681,VALID,33,VALID,0.639063,
2010-08-22, 03:29:04,VALID,1001.88,VALID,0,INVALID,117.95,VALID,0,VALID,25.7869,VALID,35,VALID,1.28477,
2010-08-22, 03:30:04,VALID,1001.88,VALID,0,VALID,104,VALID,0,VALID,25.9038,VALID,26,VALID,0.485938,
2010-08-22, 03:31:04,VALID,1001.9,VALID,0,VALID,97.0241,VALID,0,VALID,25.9232,VALID,31,VALID,0.305469,
2010-08-22, 03:32:04,VALID,1001.93,VALID,0,VALID,93.9649,VALID,0,VALID,25.9622,VALID,42,VALID,0.862109,
2010-08-22, 03:33:04,VALID,1001.93,VALID,0,VALID,91.4092,VALID,0,VALID,26.0206,VALID,7,VALID,1.7,
2010-08-22, 03:34:04,VALID,1001.94,VALID,0,VALID,89.4944,VALID,0,VALID,26.0985,VALID,10,VALID,0.953906,
2010-08-22, 03:35:04,VALID,1001.92,VALID,0,VALID,88.6552,VALID,0,VALID,26.1375,VALID,8,VALID,0.293359,
2010-08-22, 03:36:04,VALID,1001.91,VALID,0,VALID,88.3348,VALID,0,VALID,26.118,VALID,8,VALID,0.540234,
2010-08-22, 03:37:04,VALID,1001.89,VALID,0,VALID,88.0296,VALID,0,VALID,26.118,VALID,15,VALID,0.824219,
2010-08-22, 03:38:04,VALID,1001.91,VALID,0,VALID,87.6711,VALID,0,VALID,26.118,VALID,350,VALID,0.782422,
2010-08-22, 03:39:04,VALID,1001.93,VALID,0,VALID,87.5643,VALID,0,VALID,26.1375,VALID,24,VALID,0.641797,
2010-08-22, 03:40:04,VALID,1001.93,VALID,0,VALID,87.5185,VALID,0,VALID,26.1375,VALID,44,VALID,0.867188,
2010-08-22, 03:41:04,VALID,1001.93,VALID,0,VALID,87.5567,VALID,0,VALID,26.1395,VALID,27,VALID,1.34492,
2010-08-22, 03:42:04,VALID,1001.9,VALID,0,VALID,87.8237,VALID,0,VALID,26.118,VALID,24,VALID,1.175,
2010-08-22, 03:43:04,VALID,1001.89,VALID,0,VALID,87.9228,VALID,0,VALID,26.0791,VALID,44,VALID,0.568359,
2010-08-22, 03:44:04,VALID,1001.81,VALID,0,VALID,87.8923,VALID,0,VALID,26.0596,VALID,346,VALID,1.03242,
2010-08-22, 03:45:04,VALID,1001.83,VALID,0,VALID,88.0068,VALID,0,VALID,26.0206,VALID,24,VALID,0.628516,
2010-08-22, 03:46:04,VALID,1001.82,VALID,0,VALID,88.2585,VALID,0,VALID,26.0012,VALID,12,VALID,1.16094,